Cheyenne, WY

11:41 PM MDT on October 17, 2017 (GMT -0600)
Cheyenne

Weather History for KCYS - October, 2013

Change the Weather History Date:

Saturday, October 5, 2013

  Actual Average Record
Temperature  
Mean Temperature 37 °F 50 °F  
Max Temperature 47 °F 63 °F 82 °F (1947)
Min Temperature 27 °F 37 °F 19 °F (1969)
Degree Days  
Heating Degree Days 28 15  
Month to date heating degree days 99 72  
Since 1 July heating degree days 281 353  
Cooling Degree Days 0 0  
Month to date cooling degree days 0 0  
Year to date cooling degree days 520 348  
Moisture  
Dew Point 18 °F    
Average Humidity 51    
Maximum Humidity 75    
Minimum Humidity 26    
Precipitation  
Precipitation 0.00 in 0.04 in 1.35 in (1874)
Month to date precipitation 0.82 0.19  
Year to date precipitation 16.20 14.12  
Snow  
Snow 0.00 in 0.10 in 4.20 in (1951)
Month to date snowfall 4.7 0.6  
Since 1 July snowfall 4.7 1.9  
Snow Depth T in    
Sea Level Pressure  
Sea Level Pressure 30.19 in    
Wind  
Wind Speed 23 mph (NW)    
Max Wind Speed 38 mph    
Max Gust Speed 55 mph    
Visibility 10 miles    
Events      
T = Trace of Precipitation, MM = Missing Value Source: NWS Daily Summary

Daily Weather History Graph

Daily Weather History Graph

Search for Another Location

Airport or City:

Trip Planner

Search our weather history database for the weather conditions in past years. The results will help you decide how hot, cold, wet, or windy it might be!

Date:

Astronomy

Oct. 05, 2013 Rise Set
Actual Time 7:00 AM MDT 6:33 PM MDT
Civil Twilight 6:32 AM MDT 7:01 PM MDT
Nautical Twilight 6:00 AM MDT 7:33 PM MDT
Astronomical Twilight 5:28 AM MDT 8:05 PM MDT
Moon 7:43 AM MDT (10/5) 6:53 PM MDT (10/5)
Length of Visible Light 12h 28m
Length of Day
11h 33m
New Moon, 1% of the Moon is Illuminated
Oct 5
New Moon
Oct 11
First Quarter
Oct 18
Full
Oct 26
Last Quarter
Nov 3
New

Hourly Weather History & Observations

Time (MDT) Temp. Windchill Dew Point Humidity Pressure Visibility Wind Dir Wind Speed Gust Speed Precip Events Conditions
12:53 AM 27.0 °F 12.2 °F 19.0 °F 72% 30.24 in 10.0 mi NW 24.2 mph 34.5 mph N/A   Clear
1:53 AM 28.0 °F 13.6 °F 19.0 °F 69% 30.23 in 10.0 mi NW 24.2 mph 41.4 mph N/A   Partly Cloudy
2:53 AM 27.0 °F 12.2 °F 19.0 °F 72% 30.24 in 10.0 mi NW 24.2 mph 34.5 mph N/A   Clear
3:53 AM 28.0 °F 13.3 °F 19.9 °F 72% 30.25 in 10.0 mi NW 25.3 mph 41.4 mph N/A   Overcast
4:53 AM 28.9 °F 14.3 °F 21.0 °F 72% 30.25 in 10.0 mi NW 26.5 mph 41.4 mph N/A   Overcast
5:53 AM 30.0 °F 17.2 °F 21.9 °F 72% 30.21 in 10.0 mi WNW 20.7 mph 38.0 mph N/A   Overcast
6:53 AM 30.0 °F 16.9 °F 19.0 °F 64% 30.20 in 10.0 mi NW 21.9 mph 27.6 mph N/A   Clear
7:53 AM 30.9 °F 18.1 °F 19.9 °F 64% 30.22 in 10.0 mi NW 21.9 mph 36.8 mph N/A   Clear
8:53 AM 33.1 °F 20.1 °F 19.9 °F 59% 30.22 in 10.0 mi NW 25.3 mph 41.4 mph N/A   Clear
9:53 AM 35.1 °F 24.5 °F 19.9 °F 54% 30.22 in 10.0 mi NW 18.4 mph 35.7 mph N/A   Clear
10:53 AM 37.0 °F 26.4 °F 19.0 °F 48% 30.23 in 10.0 mi NW 20.7 mph 36.8 mph N/A   Clear
11:53 AM 41.0 °F 30.0 °F 17.1 °F 38% 30.20 in 10.0 mi NW 28.8 mph 43.7 mph N/A   Clear
12:53 PM 43.0 °F 33.5 °F 16.0 °F 34% 30.18 in 10.0 mi NW 24.2 mph 42.6 mph N/A   Clear
1:53 PM 44.1 °F 34.8 °F 17.1 °F 34% 30.16 in 10.0 mi NW 25.3 mph 44.9 mph N/A   Clear
2:53 PM 45.0 °F 35.2 °F 16.0 °F 31% 30.16 in 10.0 mi NW 29.9 mph 44.9 mph N/A   Clear
3:53 PM 46.0 °F 36.2 °F 14.0 °F 28% 30.15 in 10.0 mi NW 33.4 mph 49.5 mph N/A   Clear
4:53 PM 46.9 °F - 15.1 °F 28% 30.14 in 10.0 mi NW 26.5 mph 43.7 mph N/A   Clear
5:53 PM 45.0 °F 36.0 °F 15.1 °F 30% 30.13 in 10.0 mi NW 25.3 mph 39.1 mph N/A   Clear
6:53 PM 43.0 °F 34.0 °F 15.1 °F 32% 30.14 in 10.0 mi WNW 21.9 mph 29.9 mph N/A   Clear
7:53 PM 42.1 °F 32.8 °F 15.1 °F 34% 30.16 in 10.0 mi NW 21.9 mph 38.0 mph N/A   Clear
8:53 PM 39.9 °F 31.1 °F 16.0 °F 38% 30.19 in 10.0 mi NW 17.3 mph 29.9 mph N/A   Clear
9:53 PM 39.9 °F 30.5 °F 17.1 °F 40% 30.20 in 10.0 mi NW 19.6 mph 27.6 mph N/A   Clear
10:53 PM 43.0 °F 34.2 °F 19.0 °F 38% 30.18 in 10.0 mi NW 20.7 mph 31.1 mph N/A   Clear
11:53 PM 43.0 °F 35.1 °F 21.9 °F 43% 30.14 in 10.0 mi NW 17.3 mph 26.5 mph N/A   Clear